Regional Weather Roundup
Issued by NWS Charleston, SC

Home | Current Version | Previous Version | Text Only | Print | Product List | Glossary On
Versions: 1 2 3 4 5 6 7 8 9 10 11 12 13 14 15 16 17 18 19 20 21 22 23 24 25 26 27 28 29 30 31 32 33 34 35 36 37 38 39 40 41 42 43 44 45 46 47 48 49 50
000
ASUS42 KCHS 050827
RWRCHS

REGIONAL WEATHER ROUNDUP
NATIONAL WEATHER SERVICE CHARLESTON SC
400 AM EDT WED AUG 05 2015

NOTE: "FAIR" INDICATES FEW OR NO CLOUDS BELOW 12,000 FEET WITH NO
SIGNIFICANT WEATHER AND/OR OBSTRUCTIONS TO VISIBILITY.

NOT ALL STATIONS ARE QUALITY CONTROLLED BY THE NATIONAL
WEATHER SERVICE. USE DATA WITH CAUTION...ESPECIALLY
DEWPOINT OBSERVATIONS.

SCZ027-030-031-034>040-042>050-050900-
...SOUTHEAST SOUTH CAROLINA...

CITY           SKY/WX    TMP DP  RH WIND       PRES   REMARKS
N CHARLESTON   CLEAR     78  72  81 W7        30.01S
WATERFRONT PRK   N/A     81  74  79 VRB3      29.98S
MOUNT PLEASANT FAIR      81  73  78 SW7       30.01R
JOHNS ISLAND   FAIR      79  75  89 CALM      30.02R
PINOPOLIS      NOT AVBL
MONCKS CORNER  FAIR      79  72  78 SW3       30.00S
SUMMERVILLE    FAIR      75  73  94 CALM      30.02S
BEAUFORT MCAS  PTCLDY    77  73  87 W6        30.02S
BEAUFORT ARPT  FAIR      79  73  83 W8        30.02R
HILTON HEAD IS PTCLDY    79  75  89 S6        30.03S
WALTERBORO     MOSUNNY   79  72  78 SW3       30.02S
ALLENDALE      FAIR      77  73  88 CALM      30.01S

...SOUTHERN MIDLANDS AND PEE DEE...

CITY           SKY/WX    TMP DP  RH WIND       PRES   REMARKS
GEORGETOWN     NOT AVBL
KINGSTREE      NOT AVBL
ORANGEBURG     MOCLDY    77  73  87 SW6       30.01S
BARNWELL       FAIR      79  73  83 CALM      30.02S
AIKEN          FAIR      75  68  78 SW5       30.05S
MANNING        RAIN      79  72  78 SW7       30.00S
COLUMBIA       MOCLDY    81  68  64 W8        29.98S
SUMTER         NOT AVBL
FLORENCE       CLEAR     80  76  87 W8        29.97S
MYRTLE BEACH   PTCLDY    81  73  78 SW5       30.00S
N MYRTLE BEACH CLEAR     80  76  87 SW8       29.98S

$$

GAZ063-065-086>088-099>101-113>116-118-119-134>141-150-050900-
...SOUTHEAST GEORGIA...

CITY           SKY/WX    TMP DP  RH WIND       PRES   REMARKS
SAVANNAH ARPT  CLEAR     75  71  87 W3        30.03R
HUNTER AAF     CLEAR     76  74  96 SW5       30.01R
FORT STEWART   NOT AVBL
STATESBORO     CLEAR     76  76 100 CALM      30.02S
SYLVANIA       SUNNY     77  75  94 CALM      30.03S
CLAXTON        NOT AVBL

...CSRA...CENTRAL AND FAR SOUTHEAST GEORGIA...

CITY           SKY/WX    TMP DP  RH WIND       PRES   REMARKS
THOMSON        CLEAR     77  74  88 S3        30.06S
AUGUSTA-BUSH   PTCLDY    75  71  87 S3        30.00S
AUGUSTA-DANIEL PTCLDY    79  70  74 SW5       30.02S
SWAINSBORO     FAIR     N/A N/A N/A CALM      30.03F
VIDALIA        CLEAR     75  73  94 SW5       30.04R
EASTMAN        FAIR      76  76 100 CALM      30.05F
HAZLEHURST     FAIR      76  76 100 CALM      30.03S
ALMA           CLEAR     74  72  93 CALM      30.04R
WAYCROSS       CLEAR     77  77 100 S3        30.05R
JESUP          FAIR      73  73 100 CALM      30.05R
BAXLEY         FAIR      75  73  94 CALM      30.03F
BRUNSWICK      PTCLDY    77  73  88 SW5       30.05S
SAINT SIMONS   CLEAR     77  74  90 SW8       30.04S

$$

SCZ027-028-034-036>038-045-046-048>050-GAZ119-141-050900-
...LAKE AND SUPPLEMENTAL COASTAL OBSERVATIONS...

STATION/POSITION TIME  TEMP    WIND        PRES    WAVE   SWELL
                       AIR SEA DIR/SP/G            HT/PER HT/PER/DIR
                 (UTC) (F)     (DEG/KT/KT) (MB)    (FT/S) (FT/S/D)
UPR LAKE MARION  NOT AVBL
WINYAH BAY       0700   80     240/  7     1015.0S
LAKE MURRAY      0700   84     260/  9/ 13 1014.6R
ACE BASIN NERRS  NOT AVBL
FORT PULASKI     0800   79 85  210/  5/  9 1017.3R
SAPELO ISLAND    0800   78     220/  7     1017.0S

$$

ANZ835-935-AMZ111-154-330-350-352-354-370-450-454-472-050900-
...C-MAN AND BUOY OBSERVATIONS...

STATION/POSITION TIME  TEMP    WIND        PRES    WAVE   SWELL
                       AIR SEA DIR/SP/G            HT/PER HT/PER/DIR
                 (UTC) (F)     (DEG/KT/KT) (MB)    (FT/S) (FT/S/D)
BUOY 41004       0750   82 83  230/ 16/ 17 1015.6S   4/ 5   2/ 8
BUOY 41008       0750   81 83  240/ 14/ 16 1017.4R   2/ 7   2/140/ 7
FOLLY BEACH CMAN 0800   80     240/  6/  7 1016.4R
CAPERS NEARSHORE 0708   83     250/ 14/ 17 1016.3R
FRIPP NEARSHORE  0700   83     210/ 14/ 16 1016.1F


STATION/POSITION TIME  TEMP    WIND        PRES    WAVE   SWELL
                       AIR SEA DIR/SP/G            HT/PER HT/PER/DIR
                 (UTC) (F)     (DEG/KT/KT) (MB)    (FT/S) (FT/S/D)
5E ST. MARYS GA  0721      82                N/A     2/11
FRYING PAN BUOY  0750   83 81  220/ 16/ 19 1015.6F   5/ 7   3/160/ 7
BUOY 41025       0750   81 84  260/ 17/ 21 1013.6R   7/ 6   2/160/11
CAPE LOOKOUT NC  0800   80     250/ 14/ 17 1014.3R
BUOY 41002       0750   82 81  220/ 16/ 19 1017.9S   6/ 7   3/140/11
BUOY 41010       0720   83 85  200/ 10/ 12 1018.9S
ST AUGUSTINE FL  0800   76 77  210/  3/  4 1019.0S


$$



USA.gov is the U.S. government's official web portal to all federal, state and local government web resources and services.